• In Uzbekistan
  • List of Countries
  • For 7 days
  • Water Temperature
  • Satellite Maps
  • Weather Map
  • Weather Widgets
  • user-avatar
    Login

    Hourly Weather Dubai

    Today, 20 June, Thursday

    Time Temperature Precipitation Wind Pressure Humidity
    00:00 +35°C° 0 mm 3 mps 746 mmHg 64%
    01:00 +35°C° 0 mm 3 mps 746 mmHg 66%
    02:00 +35°C° 0 mm 3 mps 745 mmHg 65%
    03:00 +34°C° 0 mm 2 mps 745 mmHg 65%
    04:00 +34°C° 0 mm 2 mps 745 mmHg 68%
    05:00 +34°C° 0 mm 3 mps 746 mmHg 65%
    06:00 +35°C° 0 mm 4 mps 746 mmHg 62%
    07:00 +35°C° 0 mm 4 mps 747 mmHg 59%
    08:00 +37°C° 0 mm 4 mps 747 mmHg 50%
    09:00 +41°C° 0 mm 4 mps 747 mmHg 41%
    10:00 +42°C° 0 mm 5 mps 747 mmHg 36%
    11:00 +44°C° 0 mm 4 mps 747 mmHg 32%
    12:00 +45°C° 0 mm 4 mps 747 mmHg 28%
    13:00 +47°C° 0 mm 3 mps 747 mmHg 24%
    14:00 +48°C° 0 mm 4 mps 746 mmHg 26%
    15:00 +47°C° 0 mm 5 mps 746 mmHg 28%
    16:00 +47°C° 0 mm 6 mps 745 mmHg 30%
    17:00 +46°C° 0 mm 6 mps 746 mmHg 31%
    18:00 +45°C° 0 mm 6 mps 746 mmHg 32%
    19:00 +45°C° 0 mm 6 mps 746 mmHg 32%
    20:00 +42°C° 0 mm 5 mps 747 mmHg 39%
    21:00 +40°C° 0 mm 5 mps 747 mmHg 46%
    22:00 +37°C° 0 mm 4 mps 747 mmHg 54%
    23:00 +36°C° 0 mm 4 mps 747 mmHg 55%

    Tomorrow, 21 June, Friday

    Time Temperature Precipitation Wind Pressure Humidity
    00:00 +36°C° 0 mm 3 mps 747 mmHg 56%
    01:00 +35°C° 0 mm 3 mps 747 mmHg 57%
    02:00 +35°C° 0 mm 3 mps 747 mmHg 60%
    03:00 +35°C° 0 mm 3 mps 747 mmHg 62%
    04:00 +34°C° 0 mm 3 mps 746 mmHg 65%
    05:00 +34°C° 0 mm 3 mps 747 mmHg 66%
    06:00 +34°C° 0 mm 4 mps 748 mmHg 66%
    07:00 +34°C° 0 mm 4 mps 748 mmHg 67%
    08:00 +36°C° 0 mm 4 mps 748 mmHg 57%
    09:00 +39°C° 0 mm 3 mps 749 mmHg 47%
    10:00 +42°C° 0 mm 3 mps 749 mmHg 38%
    11:00 +43°C° 0 mm 3 mps 749 mmHg 34%
    12:00 +45°C° 0 mm 3 mps 748 mmHg 30%
    13:00 +47°C° 0 mm 4 mps 748 mmHg 26%
    14:00 +45°C° 0 mm 4 mps 748 mmHg 31%
    15:00 +45°C° 0 mm 5 mps 747 mmHg 35%
    16:00 +42°C° 0 mm 6 mps 747 mmHg 40%
    17:00 +41°C° 0 mm 5 mps 747 mmHg 44%
    18:00 +40°C° 0 mm 5 mps 747 mmHg 48%
    19:00 +39°C° 0 mm 5 mps 747 mmHg 52%
    20:00 +38°C° 0 mm 4 mps 747 mmHg 55%
    21:00 +37°C° 0 mm 4 mps 748 mmHg 57%
    22:00 +37°C° 0 mm 3 mps 748 mmHg 59%
    23:00 +36°C° 0 mm 3 mps 748 mmHg 59%

    Day after tomorrow, 22 June, Saturday

    Time Temperature Precipitation Wind Pressure Humidity
    00:00 +36°C° 0 mm 2 mps 748 mmHg 58%
    01:00 +36°C° 0 mm 2 mps 748 mmHg 57%
    02:00 +36°C° 0 mm 2 mps 748 mmHg 58%
    03:00 +35°C° 0 mm 2 mps 747 mmHg 59%
    04:00 +34°C° 0 mm 1 mps 747 mmHg 60%
    05:00 +35°C° 0 mm 1 mps 748 mmHg 57%
    06:00 +35°C° 0 mm 1 mps 748 mmHg 54%
    07:00 +35°C° 0 mm 1 mps 749 mmHg 51%
    08:00 +39°C° 0 mm 1 mps 749 mmHg 39%
    09:00 +41°C° 0 mm 1 mps 749 mmHg 28%
    10:00 +45°C° 0 mm 2 mps 750 mmHg 16%
    11:00 +45°C° 0 mm 2 mps 749 mmHg 17%
    12:00 +46°C° 0 mm 3 mps 749 mmHg 18%
    13:00 +48°C° 0 mm 4 mps 749 mmHg 18%
    14:00 +47°C° 0 mm 5 mps 749 mmHg 22%
    15:00 +46°C° 0 mm 5 mps 748 mmHg 27%
    16:00 +45°C° 0 mm 6 mps 748 mmHg 31%
    17:00 +43°C° 0 mm 5 mps 748 mmHg 32%
    18:00 +42°C° 0 mm 5 mps 748 mmHg 33%
    19:00 +42°C° 0 mm 4 mps 748 mmHg 35%
    20:00 +41°C° 0 mm 4 mps 748 mmHg 36%
    21:00 +40°C° 0 mm 4 mps 748 mmHg 37%
    22:00 +39°C° 0 mm 3 mps 749 mmHg 38%
    23:00 +38°C° 0 mm 3 mps 748 mmHg 38%

    23 June, Sunday

    Time Temperature Precipitation Wind Pressure Humidity
    00:00 +38°C° 0 mm 2 mps 748 mmHg 38%
    01:00 +38°C° 0 mm 2 mps 748 mmHg 38%
    02:00 +37°C° 0 mm 2 mps 748 mmHg 41%
    03:00 +35°C° 0 mm 1 mps 748 mmHg 43%
    04:00 +35°C° 0 mm 1 mps 747 mmHg 45%
    05:00 +35°C° 0 mm 1 mps 748 mmHg 43%
    06:00 +36°C° 0 mm 1 mps 748 mmHg 41%
    07:00 +35°C° 0 mm 0 mps 749 mmHg 39%
    08:00 +40°C° 0 mm 1 mps 749 mmHg 33%
    09:00 +41°C° 0 mm 1 mps 749 mmHg 28%
    10:00 +43°C° 0 mm 2 mps 749 mmHg 22%
    11:00 +46°C° 0 mm 3 mps 749 mmHg 20%
    12:00 +48°C° 0 mm 4 mps 749 mmHg 18%
    13:00 +49°C° 0 mm 5 mps 748 mmHg 16%
    14:00 +48°C° 0 mm 5 mps 748 mmHg 17%
    15:00 +48°C° 0 mm 5 mps 748 mmHg 19%
    16:00 +47°C° 0 mm 5 mps 747 mmHg 21%
    17:00 +45°C° 0 mm 5 mps 747 mmHg 26%
    18:00 +43°C° 0 mm 5 mps 748 mmHg 32%
    19:00 +41°C° 0 mm 5 mps 748 mmHg 37%
    20:00 +40°C° 0 mm 5 mps 748 mmHg 41%
    21:00 +40°C° 0 mm 5 mps 748 mmHg 44%
    22:00 +39°C° 0 mm 5 mps 748 mmHg 48%
    23:00 +38°C° 0 mm 4 mps 748 mmHg 51%

    24 June, Monday

    Time Temperature Precipitation Wind Pressure Humidity
    00:00 +37°C° 0 mm 3 mps 747 mmHg 55%
    01:00 +37°C° 0 mm 2 mps 747 mmHg 58%
    02:00 +36°C° 0 mm 3 mps 747 mmHg 59%
    03:00 +36°C° 0 mm 3 mps 747 mmHg 59%
    04:00 +35°C° 0 mm 3 mps 747 mmHg 60%
    05:00 +36°C° 0 mm 3 mps 747 mmHg 55%
    06:00 +37°C° 0 mm 3 mps 748 mmHg 50%
    07:00 +38°C° 0 mm 4 mps 748 mmHg 45%
    08:00 +40°C° 0 mm 3 mps 748 mmHg 37%
    09:00 +43°C° 0 mm 3 mps 749 mmHg 29%
    10:00 +46°C° 0 mm 2 mps 749 mmHg 21%
    11:00 +47°C° 0 mm 3 mps 749 mmHg 18%
    12:00 +48°C° 0 mm 3 mps 749 mmHg 15%
    13:00 +50°C° 0 mm 4 mps 748 mmHg 12%
    14:00 +50°C° 0 mm 4 mps 748 mmHg 15%
    15:00 +49°C° 0 mm 5 mps 748 mmHg 17%
    16:00 +48°C° 0 mm 5 mps 747 mmHg 20%
    17:00 +47°C° 0 mm 4 mps 747 mmHg 23%
    18:00 +45°C° 0 mm 4 mps 747 mmHg 25%
    19:00 +43°C° 0 mm 3 mps 747 mmHg 28%
    20:00 +43°C° 0 mm 3 mps 748 mmHg 30%
    21:00 +42°C° 0 mm 3 mps 748 mmHg 32%
    22:00 +40°C° 0 mm 2 mps 748 mmHg 34%
    23:00 +39°C° 0 mm 2 mps 748 mmHg 35%

    25 June, Tuesday

    Time Temperature Precipitation Wind Pressure Humidity
    00:00 +39°C° 0 mm 2 mps 748 mmHg 35%
    01:00 +38°C° 0 mm 2 mps 748 mmHg 35%
    02:00 +36°C° 0 mm 1 mps 748 mmHg 37%
    03:00 +36°C° 0 mm 1 mps 748 mmHg 38%
    04:00 +33°C° 0 mm 0 mps 747 mmHg 39%
    05:00 +36°C° 0 mm 1 mps 748 mmHg 36%
    06:00 +37°C° 0 mm 1 mps 748 mmHg 33%
    07:00 +39°C° 0 mm 1 mps 748 mmHg 30%
    08:00 +41°C° 0 mm 1 mps 749 mmHg 24%
    09:00 +44°C° 0 mm 1 mps 749 mmHg 19%
    10:00 +46°C° 0 mm 1 mps 749 mmHg 14%
    11:00 +47°C° 0 mm 2 mps 749 mmHg 14%
    12:00 +48°C° 0 mm 3 mps 749 mmHg 15%
    13:00 +50°C° 0 mm 4 mps 748 mmHg 16%
    14:00 +48°C° 0 mm 3 mps 748 mmHg 17%
    15:00 +48°C° 0 mm 2 mps 747 mmHg 18%
    16:00 +46°C° 0 mm 1 mps 747 mmHg 19%
    17:00 +46°C° 0 mm 2 mps 747 mmHg 19%
    18:00 +46°C° 0 mm 2 mps 747 mmHg 20%
    19:00 +45°C° 0 mm 2 mps 746 mmHg 20%
    20:00 +42°C° 0 mm 2 mps 747 mmHg 26%
    21:00 +40°C° 0 mm 2 mps 747 mmHg 31%
    22:00 +39°C° 0 mm 3 mps 748 mmHg 37%
    23:00 +39°C° 0 mm 3 mps 748 mmHg 33%
    Show more